< < Back
Terminal Aerodrome Forecast


Current Version              Previous Versions:   1  2  3  4  5  6  7  8  9  

Terminal Aerodrome Forecast

270
FTUS42 KCHS 271700
TAFSAV
TAF
KSAV 271720Z 2718/2818 30016G26KT P6SM FEW050
     FM272230 32006KT P6SM SKC
     FM281430 36009G13KT P6SM SKC=



Latest METAR

783
SAUS80 KWBC 282000 CCA
MTRSAV
METAR KSAV 281953Z 29005KT 10SM CLR 12/M04 A3032 RMK AO2 SLP266
T01171044


USA.gov is the U.S. government's official web portal to all federal, state and local government web resources and services.